This is the latest recevied weather packets stored in our database for station/object KF7PIZ. If no packets are shown the sender has not sent any weather packets the latest 10 day(s).
| Time | Temp. | Humidity | Pressure | Rain* | Wind** | Luminosity | Snow |
|---|---|---|---|---|---|---|---|
| 1777027528 | 1.11° C | 76% | 1015.8 hPa | 0 mm | - | 0 W/m² | - |
| 1777027225 | 1.11° C | 76% | 1015.7 hPa | 0 mm | - | 0 W/m² | - |
| 1777026921 | 1.11° C | 76% | 1015.7 hPa | 0 mm | - | 0 W/m² | - |
| 1777026618 | 1.11° C | 76% | 1016 hPa | 0 mm | - | 0 W/m² | - |
| 1777026318 | 1.11° C | 75% | 1016 hPa | 0 mm | - | 0 W/m² | - |
| 1777026015 | 0.56° C | 75% | 1016.1 hPa | 0 mm | - | 0 W/m² | - |
| 1777025713 | 1.11° C | 75% | 1016 hPa | 0 mm | - | 0 W/m² | - |
| 1777025408 | 1.11° C | 74% | 1015.8 hPa | 0 mm | - | 0 W/m² | - |
| 1777025104 | 1.11° C | 74% | 1015.7 hPa | 0 mm | - | 0 W/m² | - |
| 1777024803 | 1.11° C | 74% | 1015.7 hPa | 0 mm | - | 0 W/m² | - |
| 1777024500 | 1.11° C | 74% | 1015.8 hPa | 0 mm | - | 0 W/m² | - |
| 1777024196 | 1.67° C | 74% | 1016 hPa | 0 mm | - | 0 W/m² | - |
| 1777023892 | 1.67° C | 73% | 1015.8 hPa | 0 mm | - | 0 W/m² | - |
| 1777023589 | 1.67° C | 72% | 1015.8 hPa | 0 mm | - | 0 W/m² | - |
| 1777023285 | 1.67° C | 71% | 1015.8 hPa | 0 mm | - | 0 W/m² | - |
| 1777022982 | 1.67° C | 70% | 1016.1 hPa | 0 mm | - | 0 W/m² | - |
| 1777022678 | 2.22° C | 70% | 1016 hPa | 0 mm | - | 0 W/m² | - |
| 1777022378 | 2.22° C | 71% | 1016 hPa | 0 mm | - | 0 W/m² | - |
| 1777022075 | 2.22° C | 71% | 1015.8 hPa | 0 mm | - | 0 W/m² | - |
| 1777021771 | 2.22° C | 69% | 1016.3 hPa | 0 mm | - | 0 W/m² | - |
| 1777021468 | 2.22° C | 68% | 1016 hPa | 0 mm | - | 0 W/m² | - |
| 1777021164 | 2.22° C | 68% | 1016.2 hPa | 0 mm | - | 0 W/m² | - |
| 1777020860 | 2.78° C | 68% | 1016.3 hPa | 0 mm | - | 0 W/m² | - |
| 1777020555 | 2.78° C | 68% | 1016.4 hPa | 0 mm | - | 0 W/m² | - |
| 1777020252 | 2.78° C | 67% | 1016.2 hPa | 0 mm | - | 0 W/m² | - |
* Rain latest hour (hover to see other rain measurements)
** Current wind speed in m/s (hover to see current wind gust speed)